sat.trackr.live / text

‹ back to catalog

STARLINK-36502

NORAD 67627 · 2026-020L

PAYLOAD ACTIVE UNKNOWN

§ Identity

Operator
Country
US
Launch date
2026-01-30
Launch site
AFETR
Launch vehicle
Mass (kg)
RCS (m²)

Purposes: comms

External: N2YO · Heavens-Above · Gunter

§ Orbital elements

Epoch: 2026-05-25T01:16:40.848384Z

Period
94.27 min
Inclination
43.0025°
Eccentricity
0.0001571
Mean motion
15.27597250 rev/d
Perigee alt
481.9 km
Apogee alt
484.1 km
Semi-major
6,861.1 km
B*
6.6545e-4
RAAN
68.4176°
Arg perigee
274.4087°
Mean anomaly
85.6585°
Rev number
1,779

§ Raw data

STARLINK-365021 67627U 26020L   26145.05325056  .00018104  00000+0  66545-3 0  99942 67627  43.0025  68.4176 0001571 274.4087  85.6585 15.27597250 17796

JSON: /api/v1/satellites/67627 · /tle

For live sub-satellite position, see the globe view (requires WebGL).

§ Visibility from observer

Set your observer location to see the next 7 days of passes ≥ 10°. The values pass through the URL so the page stays shareable.

No JS? Fill the form by hand. The geolocation button needs JavaScript.